Starlink 33859

operational
NORAD ID: 63640 Int'l Des: 2025-083 Owner: SPXS Country: US Constellation: starlink
LEOCIRCULAR

Starlink 33859について

説明を読み込み中...

リアルタイム位置

3D地球を読み込み中...

次回通過

高度履歴

Altitude vs Time

uPlot chart will show altitude changes over time

軌道要素

1 63640U 25083G 25260.03106631 .00019762 00000-0 72572-3 0 9993
2 63640 43.0011 266.3265 0001746 267.0517 93.0135 15.27580188 23502
Epoch: Sep 17, 2025 • Age: 11 hours

現在のステータス

高度 489.0 km
速度 7.62 km/s
衛星直下点 -26.86°S, 61.18°E
打ち上げ日 Apr 25, 2025
運用期間 0.3 years
タイプ internet

技術仕様

分類 Payload
質量 575.00 kg
乾燥質量 530.00 kg
総質量 575.00 kg
長さ 0.30 m
直径 4.10 m
スパン 29.00 m
形状 Box + pan
製造者 SPXS
バスタイプ Starlink V2MO
フェーズステータス In Orbit
所有者/国 SPXS/US

大規模コンステレーション

Loading constellations...